Location: Crescent
(42.8242°N, 73.7329°W)
Time: 21:04:19
(UTC+00:00)

SR - Pass Details

Date: 16 February 2026
Orbit: 573 x 848 km, 66.7° (Epoch: 6 March)

Event Time Altitude Azimuth Distance (km) Brightness Sun altitude
Rises 18:12:09 0° 331° (NNW) 3,068 ? 33.2°
Reaches altitude 10° 18:14:26 10° 335° (NNW) 2,191 ? 33.0°
Maximum altitude 18:19:25 62° 57° (ENE) 845 ? 32.7°
Drops below altitude 10° 18:24:46 10° 138° (SE) 2,354 ? 32.4°
Sets 18:27:17 0° 141° (SE) 3,315 ? 32.2°
